YUNYAO-1 46

导读 | 豆包AI

YUNYAO-1 46,即云遥一号46星,是中国云遥气象星座的成员卫星。北京时间2025年3月21日,它与云遥一号43-45、47-48星一同,在酒泉卫星发射中心由谷神星一号运载火箭发射升空,顺利进入预定轨道。该星搭载GNSS掩星探测载荷,可获取大气层温湿度、压力及电离层电子密度信息,服务气象观测研究,此次任务是谷神星一号运载火箭第19次飞行。

Basic Information
目录编号:
63347
目录名称:
YUNYAO-1 46
国际标识:
2025-059D
轨道中心:
EARTH
卫星名称:
YUNYAO-1 46
卫星全名:
YUNYAO-1 46
卫星状态:
在轨 (已飞行403 天)
发射日期:
2025-03-21 UTC
国别 :
中国 (CN)
星等 :
--
Orbit Information
数据来源 国际轨道数据
星历时间: 2026-04-28T21:22:19+0800
9小时前
查看轨道信息
半长轴: 6912.204km
偏心率: 0.0010887
轨道倾角: 97.611°
近地点辐角 322.680°
升交点赤经 300.228°
平近点角 37.368°
近地点: 526.541km
远地点: 541.593km
周期: 95.320分钟
每日圈数: 15.106991
Detailed Information
使用方式:
暂无
2D Orbit Map
3D Orbit Map
Orbit Altitude Analysis Chart
Orbit Inclination Analysis Chart
Orbit Comprehensive Analysis Chart
View Comprehensive Chart